TimeMST,TemperatureF,Dew PointF,Humidity,Sea Level PressureIn,VisibilityMPH,Wind Direction,Wind SpeedMPH,Gust SpeedMPH,PrecipitationIn,Events,Conditions,WindDirDegrees,DateUTC
12:54 AM,46.9,21.0,36,30.01,10.0,East,8.1,-,N/A,,Clear,80,2012-11-15 07:54:00
1:54 AM,46.9,21.0,36,30.00,10.0,Calm,Calm,-,N/A,,Clear,0,2012-11-15 08:54:00
2:54 AM,44.1,21.0,40,30.00,10.0,East,3.5,-,N/A,,Clear,80,2012-11-15 09:54:00
3:54 AM,46.0,21.0,37,29.99,10.0,Calm,Calm,-,N/A,,Clear,0,2012-11-15 10:54:00
4:54 AM,43.0,21.0,42,30.01,10.0,East,3.5,-,N/A,,Clear,80,2012-11-15 11:54:00
5:54 AM,43.0,21.0,42,30.03,10.0,South,3.5,-,N/A,,Clear,180,2012-11-15 12:54:00
6:54 AM,39.9,21.0,47,30.08,10.0,NE,4.6,-,N/A,,Clear,40,2012-11-15 13:54:00
7:54 AM,48.0,21.9,36,30.08,10.0,Calm,Calm,-,N/A,,Clear,0,2012-11-15 14:54:00
8:54 AM,57.0,23.0,27,30.09,10.0,Calm,Calm,-,N/A,,Clear,0,2012-11-15 15:54:00
9:54 AM,63.0,24.1,23,30.08,10.0,Calm,Calm,-,N/A,,Clear,0,2012-11-15 16:54:00
10:54 AM,70.0,24.1,18,30.06,10.0,Variable,3.5,-,N/A,,Clear,0,2012-11-15 17:54:00
11:54 AM,73.9,25.0,16,30.04,10.0,SSW,5.8,-,N/A,,Clear,200,2012-11-15 18:54:00
12:54 PM,75.9,19.9,12,30.01,10.0,SSW,6.9,-,N/A,,Clear,210,2012-11-15 19:54:00
1:54 PM,75.9,15.1,10,30.00,10.0,West,6.9,-,N/A,,Clear,270,2012-11-15 20:54:00
2:54 PM,75.9,16.0,10,29.99,10.0,SW,3.5,-,N/A,,Clear,220,2012-11-15 21:54:00
3:54 PM,75.0,17.1,11,29.99,10.0,West,3.5,-,N/A,,Clear,260,2012-11-15 22:54:00
4:54 PM,73.0,19.0,13,30.01,10.0,Calm,Calm,-,N/A,,Clear,0,2012-11-15 23:54:00
5:54 PM,66.9,21.0,17,30.04,10.0,East,3.5,-,N/A,,Clear,80,2012-11-16 00:54:00
6:54 PM,66.9,24.1,20,30.06,10.0,Calm,Calm,-,N/A,,Clear,0,2012-11-16 01:54:00
7:54 PM,64.9,24.1,21,30.06,10.0,Calm,Calm,-,N/A,,Clear,0,2012-11-16 02:54:00
8:54 PM,63.0,24.1,23,30.06,10.0,Calm,Calm,-,N/A,,Partly Cloudy,0,2012-11-16 03:54:00
9:54 PM,60.1,24.1,25,30.05,10.0,East,4.6,-,N/A,,Overcast,100,2012-11-16 04:54:00
10:54 PM,60.1,24.1,25,30.03,10.0,East,6.9,-,N/A,,Overcast,80,2012-11-16 05:54:00
11:54 PM,59.0,25.0,27,30.02,10.0,Calm,Calm,-,N/A,,Overcast,0,2012-11-16 06:54:00